TimePDT,TemperatureF,Dew PointF,Humidity,Sea Level PressureIn,VisibilityMPH,Wind Direction,Wind SpeedMPH,Gust SpeedMPH,PrecipitationIn,Events,Conditions,WindDirDegrees,DateUTC
12:15 AM,53.6,51.8,94,29.82,5.0,SSE,4.6,-,N/A,,Overcast,150,2012-10-28 07:15:00
12:35 AM,55.4,53.6,94,29.82,10.0,SSE,5.8,-,N/A,,Overcast,160,2012-10-28 07:35:00
12:55 AM,55.4,53.6,94,29.82,8.0,Calm,Calm,-,N/A,,Overcast,0,2012-10-28 07:55:00
1:15 AM,53.6,48.2,82,29.83,5.0,Calm,Calm,-,N/A,,Overcast,0,2012-10-28 08:15:00
1:35 AM,51.8,48.2,88,29.84,9.0,Calm,Calm,-,N/A,,Overcast,0,2012-10-28 08:35:00
1:55 AM,51.8,50.0,94,29.85,10.0,Calm,Calm,-,N/A,,Overcast,0,2012-10-28 08:55:00
2:15 AM,51.8,50.0,94,29.86,10.0,Calm,Calm,-,N/A,,Overcast,0,2012-10-28 09:15:00
2:35 AM,51.8,50.0,94,29.87,10.0,Calm,Calm,-,N/A,,Overcast,0,2012-10-28 09:35:00
2:55 AM,51.8,50.0,94,29.88,10.0,Calm,Calm,-,N/A,,Overcast,0,2012-10-28 09:55:00
3:15 AM,51.8,48.2,88,29.89,10.0,Calm,Calm,-,N/A,,Overcast,0,2012-10-28 10:15:00
3:35 AM,51.8,48.2,88,29.90,10.0,Calm,Calm,-,N/A,,Overcast,0,2012-10-28 10:35:00
3:55 AM,51.8,48.2,88,29.91,10.0,Calm,Calm,-,N/A,,Overcast,0,2012-10-28 10:55:00
4:15 AM,51.8,48.2,88,29.91,9.0,Calm,Calm,-,N/A,,Overcast,0,2012-10-28 11:15:00
4:35 AM,51.8,50.0,94,29.92,6.0,Calm,Calm,-,N/A,,Mostly Cloudy,0,2012-10-28 11:35:00
4:55 AM,53.6,51.8,94,29.92,5.0,Calm,Calm,-,N/A,,Mostly Cloudy,0,2012-10-28 11:55:00
5:15 AM,53.6,51.8,94,29.92,10.0,Calm,Calm,-,N/A,,Mostly Cloudy,0,2012-10-28 12:15:00
5:35 AM,53.6,51.8,94,29.93,10.0,Calm,Calm,-,N/A,,Overcast,0,2012-10-28 12:35:00
5:55 AM,53.6,50.0,88,29.93,8.0,Calm,Calm,-,N/A,,Overcast,0,2012-10-28 12:55:00
6:15 AM,51.8,50.0,94,29.93,10.0,Calm,Calm,-,N/A,,Overcast,0,2012-10-28 13:15:00
6:35 AM,53.6,50.0,88,29.93,10.0,Calm,Calm,-,N/A,,Overcast,0,2012-10-28 13:35:00
6:55 AM,51.8,50.0,94,29.93,10.0,Calm,Calm,-,N/A,,Overcast,0,2012-10-28 13:55:00
7:15 AM,51.8,50.0,94,29.94,10.0,Calm,Calm,-,N/A,,Overcast,0,2012-10-28 14:15:00
7:55 AM,51.8,50.0,94,29.93,10.0,Calm,Calm,-,N/A,,Overcast,0,2012-10-28 14:55:00
8:15 AM,51.8,50.0,94,29.94,10.0,Calm,Calm,-,N/A,,Overcast,0,2012-10-28 15:15:00
8:35 AM,51.8,50.0,94,29.94,10.0,Calm,Calm,-,N/A,,Overcast,0,2012-10-28 15:35:00
8:55 AM,51.8,50.0,94,29.93,10.0,Calm,Calm,-,N/A,,Mostly Cloudy,0,2012-10-28 15:55:00
9:15 AM,51.8,50.0,94,29.94,10.0,Calm,Calm,-,N/A,,Mostly Cloudy,0,2012-10-28 16:15:00
9:35 AM,51.8,50.0,94,29.95,10.0,Calm,Calm,-,N/A,,Scattered Clouds,0,2012-10-28 16:35:00
10:15 AM,53.6,51.8,94,29.95,10.0,Calm,Calm,-,N/A,,Overcast,0,2012-10-28 17:15:00
10:35 AM,55.4,51.8,88,29.95,10.0,Calm,Calm,-,N/A,,Overcast,0,2012-10-28 17:35:00
10:55 AM,57.2,53.6,88,29.95,10.0,SSE,5.8,-,N/A,,Overcast,150,2012-10-28 17:55:00
11:15 AM,57.2,51.8,82,29.95,10.0,SSE,9.2,-,N/A,,Overcast,150,2012-10-28 18:15:00
11:35 AM,57.2,51.8,82,29.95,10.0,SE,9.2,-,N/A,,Overcast,140,2012-10-28 18:35:00
11:55 AM,57.2,51.8,82,29.95,10.0,SE,9.2,-,N/A,,Mostly Cloudy,140,2012-10-28 18:55:00
12:15 PM,57.2,51.8,82,29.95,10.0,SSE,9.2,-,N/A,,Overcast,150,2012-10-28 19:15:00
12:35 PM,57.2,51.8,82,29.95,10.0,SSE,8.1,-,N/A,,Mostly Cloudy,150,2012-10-28 19:35:00
12:55 PM,57.2,48.2,72,29.94,10.0,SE,8.1,-,N/A,,Overcast,140,2012-10-28 19:55:00
1:15 PM,57.2,50.0,77,29.94,10.0,SE,5.8,-,N/A,,Overcast,130,2012-10-28 20:15:00
1:35 PM,57.2,50.0,77,29.93,10.0,SE,8.1,-,N/A,,Overcast,130,2012-10-28 20:35:00
1:55 PM,57.2,51.8,82,29.94,10.0,SE,9.2,-,N/A,,Overcast,130,2012-10-28 20:55:00
2:15 PM,59.0,51.8,77,29.94,10.0,SE,6.9,-,N/A,,Overcast,140,2012-10-28 21:15:00
2:35 PM,59.0,51.8,77,29.93,10.0,SE,8.1,-,N/A,,Overcast,130,2012-10-28 21:35:00
2:55 PM,59.0,51.8,77,29.92,10.0,SE,8.1,-,N/A,,Mostly Cloudy,140,2012-10-28 21:55:00
3:15 PM,59.0,50.0,72,29.92,10.0,SSE,8.1,-,N/A,,Mostly Cloudy,150,2012-10-28 22:15:00
3:35 PM,59.0,51.8,77,29.92,10.0,SSE,8.1,-,N/A,,Overcast,150,2012-10-28 22:35:00
3:55 PM,57.2,50.0,77,29.91,10.0,SSE,6.9,-,N/A,,Scattered Clouds,150,2012-10-28 22:55:00
4:15 PM,57.2,50.0,77,29.91,10.0,SSE,5.8,-,N/A,,Mostly Cloudy,150,2012-10-28 23:15:00
4:35 PM,57.2,50.0,77,29.91,10.0,South,4.6,-,N/A,,Scattered Clouds,170,2012-10-28 23:35:00
4:55 PM,57.2,50.0,77,29.90,10.0,Calm,Calm,-,N/A,,Mostly Cloudy,0,2012-10-28 23:55:00
5:15 PM,55.4,50.0,82,29.89,10.0,Calm,Calm,-,N/A,,Scattered Clouds,0,2012-10-29 00:15:00
5:35 PM,55.4,50.0,82,29.89,10.0,Calm,Calm,-,N/A,,Clear,0,2012-10-29 00:35:00
5:55 PM,55.4,50.0,82,29.88,10.0,Calm,Calm,-,N/A,,Mostly Cloudy,0,2012-10-29 00:55:00
6:15 PM,53.6,50.0,88,29.88,10.0,Calm,Calm,-,N/A,,Overcast,0,2012-10-29 01:15:00
6:35 PM,55.4,50.0,82,29.88,10.0,Calm,Calm,-,N/A,,Overcast,0,2012-10-29 01:35:00
6:55 PM,55.4,50.0,82,29.87,10.0,SSE,3.5,-,N/A,,Overcast,150,2012-10-29 01:55:00
7:15 PM,55.4,50.0,82,29.87,10.0,Calm,Calm,-,N/A,,Overcast,0,2012-10-29 02:15:00
7:35 PM,53.6,50.0,88,29.87,10.0,Calm,Calm,-,N/A,,Overcast,0,2012-10-29 02:35:00
7:55 PM,53.6,50.0,88,29.86,10.0,Calm,Calm,-,N/A,,Overcast,0,2012-10-29 02:55:00
8:35 PM,53.6,50.0,88,29.85,10.0,Calm,Calm,-,N/A,,Mostly Cloudy,0,2012-10-29 03:35:00
8:55 PM,53.6,50.0,88,29.84,10.0,Calm,Calm,-,N/A,,Overcast,0,2012-10-29 03:55:00
9:15 PM,53.6,51.8,94,29.84,8.0,Calm,Calm,-,0.03,,Overcast,0,2012-10-29 04:15:00
9:55 PM,53.6,51.8,94,29.82,6.0,Calm,Calm,-,0.05,,Overcast,0,2012-10-29 04:55:00
10:15 PM,53.6,50.0,88,29.81,5.0,Calm,Calm,-,N/A,,Overcast,0,2012-10-29 05:15:00
10:35 PM,53.6,51.8,94,29.80,8.0,Calm,Calm,-,N/A,,Overcast,0,2012-10-29 05:35:00
10:55 PM,53.6,50.0,88,29.79,8.0,Calm,Calm,-,N/A,,Overcast,0,2012-10-29 05:55:00
11:15 PM,51.8,50.0,94,29.79,9.0,Calm,Calm,-,0.01,,Mostly Cloudy,0,2012-10-29 06:15:00
11:35 PM,51.8,50.0,94,29.78,8.0,Calm,Calm,-,0.01,,Overcast,0,2012-10-29 06:35:00
11:55 PM,51.8,48.2,88,29.77,10.0,Calm,Calm,-,0.01,,Overcast,0,2012-10-29 06:55:00